AXB2971 VOMM-VOBL

Flight info

Callsign AXB2971
Flight time 0h 28m
Altitude 20000
Route MMV W117 BIA
Aircraft B738/M-SDE2E3FGHIRWXY/LB1

Departure

Time 2026-04-26 05:39
Airport Chennai International Airport (VOMM)

Arrival

Time 2026-04-26 06:07
Airport Kempegowda International Airport Bengaluru (VOBL)
Time Latitude Longitude Altitude Speed Heading
2026-04-26 05:10 12.98585 80.16567 50 ft 0 kts 340°
2026-04-26 05:24 12.98584 80.16567 50 ft 1 kts 341°
2026-04-26 05:24 12.98570 80.16573 50 ft 2 kts 340°
2026-04-26 05:24 12.98555 80.16577 50 ft 2 kts 359°
2026-04-26 05:25 12.98541 80.16575 51 ft 2 kts 18°
2026-04-26 05:25 12.98527 80.16568 51 ft 2 kts 39°
2026-04-26 05:25 12.98517 80.16557 51 ft 2 kts 60°
2026-04-26 05:25 12.98514 80.16550 51 ft 1 kts 72°
2026-04-26 05:26 12.98512 80.16545 51 ft 0 kts 70°
2026-04-26 05:26 12.98512 80.16546 51 ft 0 kts 70°
2026-04-26 05:29 12.98513 80.16546 51 ft 0 kts 70°
2026-04-26 05:29 12.98516 80.16556 51 ft 2 kts 70°
2026-04-26 05:30 12.98525 80.16579 51 ft 4 kts 68°
2026-04-26 05:30 12.98538 80.16612 51 ft 5 kts 68°
2026-04-26 05:30 12.98554 80.16654 50 ft 7 kts 70°
2026-04-26 05:30 12.98571 80.16702 51 ft 7 kts 69°
2026-04-26 05:31 12.98589 80.16747 51 ft 6 kts 59°
2026-04-26 05:31 12.98627 80.16764 50 ft 6 kts 356°
2026-04-26 05:31 12.98639 80.16761 50 ft 0 kts 343°
2026-04-26 05:31 12.98644 80.16760 50 ft 2 kts 342°
2026-04-26 05:32 12.98670 80.16750 49 ft 5 kts 340°
2026-04-26 05:32 12.98716 80.16737 48 ft 8 kts 355°
2026-04-26 05:32 12.98764 80.16763 48 ft 8 kts 63°
2026-04-26 05:32 12.98786 80.16817 48 ft 8 kts 68°
2026-04-26 05:33 12.98808 80.16872 48 ft 8 kts 69°
2026-04-26 05:33 12.98831 80.16933 48 ft 9 kts 69°
2026-04-26 05:33 12.98856 80.17002 48 ft 10 kts 69°
2026-04-26 05:33 12.98883 80.17073 49 ft 10 kts 69°
2026-04-26 05:34 12.98909 80.17142 49 ft 10 kts 69°
2026-04-26 05:34 12.98937 80.17211 50 ft 10 kts 63°
2026-04-26 05:34 12.98974 80.17283 49 ft 12 kts 62°
2026-04-26 05:34 12.99009 80.17368 49 ft 13 kts 70°
2026-04-26 05:35 12.99042 80.17455 50 ft 13 kts 69°
2026-04-26 05:35 12.99076 80.17547 49 ft 14 kts 69°
2026-04-26 05:35 12.99113 80.17643 50 ft 14 kts 69°
2026-04-26 05:35 12.99182 80.17695 48 ft 10 kts 347°
2026-04-26 05:36 12.99204 80.17687 48 ft 2 kts 339°
2026-04-26 05:36 12.99231 80.17677 47 ft 5 kts 339°
2026-04-26 05:36 12.99274 80.17655 46 ft 7 kts 311°
2026-04-26 05:36 12.99280 80.17600 45 ft 4 kts 249°
2026-04-26 05:37 12.99280 80.17599 45 ft 0 kts 249°
2026-04-26 05:38 12.99278 80.17594 45 ft 3 kts 249°
2026-04-26 05:38 12.99190 80.17369 45 ft 84 kts 248°
2026-04-26 05:38 12.98849 80.16464 46 ft 182 kts 247°
2026-04-26 05:39 12.98351 80.15104 634 ft 219 kts 249°
2026-04-26 05:39 12.97894 80.13691 1959 ft 222 kts 251°
2026-04-26 05:39 12.97471 80.12090 3009 ft 235 kts 255°
2026-04-26 05:39 12.97399 80.10554 4469 ft 229 kts 279°
2026-04-26 05:40 12.98128 80.09041 5346 ft 249 kts 308°
2026-04-26 05:40 12.99217 80.07555 5818 ft 276 kts 304°
2026-04-26 05:40 13.00141 80.05770 5870 ft 285 kts 292°
2026-04-26 05:40 13.00800 80.03841 5875 ft 286 kts 287°
2026-04-26 05:41 13.01347 80.01878 5886 ft 288 kts 285°
2026-04-26 05:41 13.01881 79.99901 5884 ft 288 kts 286°
2026-04-26 05:41 13.02431 79.97929 5886 ft 286 kts 287°
2026-04-26 05:41 13.02995 79.95965 5890 ft 287 kts 287°
2026-04-26 05:42 13.03568 79.94002 5887 ft 288 kts 287°
2026-04-26 05:42 13.04144 79.92035 5877 ft 288 kts 287°
2026-04-26 05:42 13.04720 79.90073 5887 ft 287 kts 287°
2026-04-26 05:42 13.05298 79.88100 5894 ft 290 kts 287°
2026-04-26 05:43 13.05876 79.86129 5891 ft 289 kts 287°
2026-04-26 05:43 13.06450 79.84167 5880 ft 288 kts 287°
2026-04-26 05:43 13.07030 79.82179 5909 ft 288 kts 287°
2026-04-26 05:43 13.07600 79.80223 5896 ft 288 kts 287°
2026-04-26 05:44 13.08145 79.78182 6241 ft 312 kts 285°
2026-04-26 05:44 13.08668 79.76038 7544 ft 315 kts 285°
2026-04-26 05:44 13.09187 79.73880 8922 ft 315 kts 287°
2026-04-26 05:44 13.09707 79.71738 10247 ft 316 kts 287°
2026-04-26 05:45 13.10248 79.69546 11248 ft 328 kts 287°
2026-04-26 05:45 13.10821 79.67244 12137 ft 342 kts 287°
2026-04-26 05:45 13.11424 79.64822 12957 ft 358 kts 287°
2026-04-26 05:45 13.12045 79.62328 13737 ft 373 kts 286°
2026-04-26 05:46 13.12695 79.59708 14409 ft 390 kts 286°
2026-04-26 05:46 13.13367 79.56992 15258 ft 400 kts 285°
2026-04-26 05:46 13.14059 79.54191 16213 ft 406 kts 285°
2026-04-26 05:46 13.14748 79.51398 17225 ft 410 kts 285°
2026-04-26 05:47 13.15444 79.48570 18164 ft 415 kts 284°
2026-04-26 05:47 13.16154 79.45688 19087 ft 420 kts 284°
2026-04-26 05:47 13.16876 79.42757 19673 ft 426 kts 284°
2026-04-26 05:47 13.17598 79.39830 19889 ft 427 kts 284°
2026-04-26 05:48 13.18330 79.36861 19900 ft 426 kts 284°
2026-04-26 05:48 13.19045 79.33957 19900 ft 425 kts 284°
2026-04-26 05:48 13.19774 79.30999 19908 ft 425 kts 284°
2026-04-26 05:48 13.20503 79.28048 19910 ft 424 kts 284°
2026-04-26 05:49 13.21226 79.25127 19918 ft 424 kts 284°
2026-04-26 05:49 13.22674 79.19273 19919 ft 423 kts 284°
2026-04-26 05:49 13.23395 79.16354 19927 ft 423 kts 284°
2026-04-26 05:50 13.24116 79.13436 19931 ft 424 kts 284°
2026-04-26 05:50 13.24842 79.10491 19933 ft 423 kts 284°
2026-04-26 05:50 13.25561 79.07577 19938 ft 424 kts 284°
2026-04-26 05:50 13.26284 79.04644 19941 ft 423 kts 284°
2026-04-26 05:51 13.27003 79.01726 19942 ft 423 kts 284°
2026-04-26 05:51 13.27727 78.98786 19943 ft 424 kts 284°
2026-04-26 05:51 13.28435 78.95862 19953 ft 423 kts 283°
2026-04-26 05:51 13.28982 78.92896 19959 ft 424 kts 278°
2026-04-26 05:52 13.29223 78.89923 19963 ft 423 kts 271°
2026-04-26 05:52 13.29205 78.86910 19975 ft 423 kts 268°
2026-04-26 05:52 13.29041 78.83821 19870 ft 433 kts 266°
2026-04-26 05:52 13.28814 78.80762 19505 ft 429 kts 265°
2026-04-26 05:53 13.28567 78.77770 18981 ft 421 kts 265°
2026-04-26 05:53 13.28311 78.74779 18385 ft 421 kts 265°
2026-04-26 05:53 13.28057 78.71809 17979 ft 422 kts 265°
2026-04-26 05:53 13.27809 78.68796 17742 ft 422 kts 265°
2026-04-26 05:54 13.27571 78.65786 17575 ft 421 kts 265°
2026-04-26 05:54 13.27343 78.62797 17391 ft 418 kts 265°
2026-04-26 05:54 13.27123 78.59829 17077 ft 419 kts 266°
2026-04-26 05:54 13.26907 78.56878 16729 ft 418 kts 266°
2026-04-26 05:55 13.26691 78.53912 16382 ft 416 kts 266°
2026-04-26 05:55 13.26476 78.50961 16118 ft 405 kts 266°
2026-04-26 05:55 13.26332 78.48126 15923 ft 392 kts 269°
2026-04-26 05:55 13.26391 78.45313 15695 ft 401 kts 274°
2026-04-26 05:56 13.26667 78.42490 15215 ft 393 kts 278°
2026-04-26 05:56 13.27062 78.39806 14602 ft 374 kts 281°
2026-04-26 05:56 13.27502 78.37242 13946 ft 359 kts 282°
2026-04-26 05:56 13.27946 78.34766 13358 ft 344 kts 282°
2026-04-26 05:57 13.28363 78.32400 12820 ft 331 kts 282°
2026-04-26 05:57 13.28757 78.30102 12162 ft 324 kts 282°
2026-04-26 05:57 13.29128 78.27863 11595 ft 312 kts 282°
2026-04-26 05:57 13.29470 78.25741 11204 ft 292 kts 282°
2026-04-26 05:58 13.29791 78.23735 10552 ft 289 kts 282°
2026-04-26 05:58 13.30117 78.21706 9967 ft 289 kts 282°
2026-04-26 05:58 13.30367 78.19660 9435 ft 289 kts 275°
2026-04-26 05:58 13.30187 78.17628 8946 ft 288 kts 259°
2026-04-26 05:59 13.29517 78.15713 8481 ft 286 kts 244°
2026-04-26 05:59 13.28436 78.14003 8012 ft 281 kts 230°
2026-04-26 05:59 13.27053 78.12630 7590 ft 275 kts 222°
2026-04-26 05:59 13.25836 78.11179 7379 ft 261 kts 234°
2026-04-26 06:00 13.24883 78.09642 6986 ft 251 kts 238°
2026-04-26 06:00 13.23999 78.08129 6467 ft 247 kts 239°
2026-04-26 06:00 13.23122 78.06619 6071 ft 242 kts 239°
2026-04-26 06:00 13.22259 78.05129 6032 ft 245 kts 239°
2026-04-26 06:01 13.21377 78.03619 6034 ft 248 kts 237°
2026-04-26 06:01 13.20539 78.02098 6032 ft 247 kts 247°
2026-04-26 06:01 13.20102 78.00399 6033 ft 248 kts 265°
2026-04-26 06:01 13.20161 77.98644 6044 ft 244 kts 279°
2026-04-26 06:02 13.20401 77.96982 6026 ft 226 kts 277°
2026-04-26 06:02 13.20490 77.95441 6040 ft 210 kts 272°
2026-04-26 06:02 13.20500 77.93932 6037 ft 211 kts 271°
2026-04-26 06:02 13.20502 77.92431 6036 ft 211 kts 271°
2026-04-26 06:03 13.20515 77.90930 6044 ft 209 kts 271°
2026-04-26 06:03 13.20532 77.89439 6027 ft 213 kts 271°
2026-04-26 06:03 13.20548 77.87921 5760 ft 212 kts 271°
2026-04-26 06:03 13.20561 77.86440 5478 ft 206 kts 271°
2026-04-26 06:04 13.20573 77.85008 5217 ft 191 kts 271°
2026-04-26 06:04 13.20584 77.83700 4989 ft 182 kts 270°
2026-04-26 06:04 13.20597 77.82408 4761 ft 181 kts 270°
2026-04-26 06:04 13.20611 77.81130 4522 ft 180 kts 270°
2026-04-26 06:05 13.20620 77.79879 4294 ft 166 kts 270°
2026-04-26 06:05 13.20629 77.78733 4094 ft 155 kts 269°
2026-04-26 06:05 13.20639 77.77627 3903 ft 154 kts 269°
2026-04-26 06:05 13.20649 77.76531 3709 ft 155 kts 269°
2026-04-26 06:06 13.20658 77.75431 3518 ft 154 kts 269°
2026-04-26 06:06 13.20667 77.74339 3324 ft 153 kts 269°
2026-04-26 06:06 13.20681 77.73249 3131 ft 152 kts 269°
2026-04-26 06:06 13.20678 77.72164 2957 ft 152 kts 266°
2026-04-26 06:07 13.20682 77.71139 2939 ft 130 kts 265°
2026-04-26 06:07 13.20698 77.70365 2982 ft 90 kts 272°
2026-04-26 06:07 13.20703 77.69930 2990 ft 44 kts 270°
2026-04-26 06:07 13.20705 77.69734 2992 ft 24 kts 266°
2026-04-26 06:08 13.20670 77.69569 2994 ft 23 kts 248°
2026-04-26 06:08 13.20613 77.69452 2994 ft 0 kts 240°
2026-04-26 06:08 13.20612 77.69450 2994 ft 0 kts 227°
2026-04-26 06:09 13.20590 77.69441 2994 ft 8 kts 186°
2026-04-26 06:09 13.20539 77.69531 2990 ft 25 kts 90°
2026-04-26 06:09 13.20537 77.69765 2988 ft 37 kts 92°
2026-04-26 06:09 13.20535 77.69994 2987 ft 30 kts 90°
2026-04-26 06:10 13.20533 77.70209 2985 ft 24 kts 90°
2026-04-26 06:10 13.20532 77.70381 2981 ft 25 kts 91°
2026-04-26 06:10 13.20529 77.70571 2974 ft 22 kts 91°
2026-04-26 06:10 13.20527 77.70744 2966 ft 27 kts 91°
2026-04-26 06:11 13.20527 77.70955 2955 ft 32 kts 89°
2026-04-26 06:11 13.20527 77.71204 2944 ft 36 kts 92°
2026-04-26 06:11 13.20523 77.71471 2939 ft 35 kts 90°
2026-04-26 06:11 13.20522 77.71645 2939 ft 23 kts 91°
2026-04-26 06:12 13.20519 77.71815 2939 ft 24 kts 91°
2026-04-26 06:12 13.20517 77.71987 2940 ft 24 kts 91°
2026-04-26 06:12 13.20493 77.72100 2939 ft 12 kts 148°
2026-04-26 06:12 13.20415 77.72113 2941 ft 10 kts 183°
2026-04-26 06:13 13.20350 77.72112 2944 ft 8 kts 180°
2026-04-26 06:13 13.20296 77.72111 2945 ft 7 kts 180°
2026-04-26 06:13 13.20233 77.72111 2946 ft 10 kts 180°
2026-04-26 06:13 13.20152 77.72111 2948 ft 12 kts 180°
2026-04-26 06:14 13.20055 77.72110 2950 ft 15 kts 180°
2026-04-26 06:14 13.19950 77.72110 2954 ft 14 kts 180°
2026-04-26 06:14 13.19870 77.72092 2959 ft 11 kts 244°
2026-04-26 06:14 13.19863 77.72013 2960 ft 6 kts 271°
2026-04-26 06:15 13.19863 77.72009 2960 ft 0 kts 271°